Regional Weather Roundup
Issued by NWS

Home | Current Version | Previous Version | Graphics & Text | Print | Product List | Glossary On
Versions: 1 2 3 4 5 6 7 8 9 10 11 12 13 14 15 16 17 18 19 20 21 22 23 24 25 26 27 28 29 30 31 32 33 34 35 36 37 38 39 40 41 42 43 44 45 46 47 48 49 50
000
ASUS43 KFSD 012302
RWRSD

WEATHER ROUNDUP FOR SOUTH DAKOTA
NATIONAL WEATHER SERVICE SIOUX FALLS SD
600 PM CDT MON JUN 01 2015

NOTE: "FAIR" INDICATES FEW OR NO CLOUDS BELOW 12,000 FEET WITH NO
SIGNIFICANT WEATHER AND/OR OBSTRUCTIONS TO VISIBILITY.


SDZ001>005-009-010-012>017-020000-
NORTHWEST AND NORTH CENTRAL SOUTH DAKOTA

CITY           SKY/WX    TMP DP  RH WIND       PRES   REMARKS
BUFFALO          N/A     84  58  40 S13       29.75F
FAITH            N/A     83  58  42 S20       29.82F
MOBRIDGE       MOSUNNY   85  61  44 SE18      29.82F
$$

SDZ012>016-024>037-041>051-057-063-072>074-020000-
SOUTHWEST AND SOUTH CENTRAL SOUTH DAKOTA

CITY           SKY/WX    TMP DP  RH WIND       PRES   REMARKS
RAPID CTY ARPT MOSUNNY   84  59  42 S17G25    29.83F
PIERRE         MOSUNNY   83  62  49 S20G25    29.84F
CUSTER         PTSUNNY   76  52  43 SE9G17    29.99F
PHILIP         PTSUNNY   86  62  44 SE15      29.82S
PINE RIDGE     SUNNY     83  55  38 S17G24    29.87F
WINNER         FAIR      85  59  41 S18G28    29.91F
$$

SDZ004>011-016>023-039-040-020000-
NORTHEAST SOUTH DAKOTA

CITY           SKY/WX    TMP DP  RH WIND       PRES   REMARKS
ABERDEEN       MOSUNNY   80  58  46 S20G26    29.91F
WATERTOWN      MOSUNNY   75  49  39 S20G28    29.99F
BROOKINGS      PTSUNNY   75  48  38 S21       30.03S
SISSETON         N/A     77  49  37 S21       29.96F
$$

SDZ017-020-022-023-036>040-048>070-020000-
SOUTHEAST SOUTH DAKOTA

CITY           SKY/WX    TMP DP  RH WIND       PRES   REMARKS
SIOUX FALLS    MOSUNNY   75  51  43 S14       30.02F
HURON          MOSUNNY   79  57  46 S20G25    29.93F
CHAMBERLAIN    SUNNY     79  61  54 S16G24    29.92S
MITCHELL       SUNNY     81  57  43 S20       29.96S
YANKTON        SUNNY     79  52  38 S16G24    29.98S
$$

ABBREVIATIONS USED IN REMARKS
   TC - TEMPERATURE IN CELSIUS
  WCI - WIND CHILL INDEX
   HX - HEAT INDEX
  VSB - VISIBILITY




USA.gov is the U.S. government's official web portal to all federal, state and local government web resources and services.